Location: Newark
(25.6108°S, 54.5803°W)
Time: 08:14:26
(UTC+00:00)

Courier 1B - Pass Details

Date: 05 November 2020
Orbit: 962 x 1209 km, 28.3° (Epoch: 02 December)

Event Time Altitude Azimuth Distance (km) Brightness Sun altitude
Rises 20:48:30 0° 316° (NW) 3,651 11.0 14.2°
Reaches altitude 10° 20:51:21 10° 325° (NW) 2,728 10.2 13.6°
Maximum altitude 20:57:14 35° 28° (NNE) 1,588 8.5 12.3°
Drops below altitude 10° 21:03:26 10° 91° (E) 2,876 9.4 10.9°
Sets 21:06:29 0° 99° (E) 3,875 10.0 10.2°
